Flag for Canada Weather past 2 weeks in Saskatoon, Saskatchewan, Canada

Now
48 °F

Passing clouds.


Feels Like: 46 °F
Forecast: 52 / 76 °F
Wind: 6 mph from South

Location: Saskatoon Weather Station

Current Time: Sep 18, 2014 at 6:43:29 AM

Latest Report: Sep 18, 2014 at 6:00 AM


Visibility: 15 mi

Pressure: 29.63 "Hg

Humidity: 94%

Dew point: 46 °F

Location of SaskatoonLocation

Historic Weather in Saskatoon — Graph

°F

Saskatoon temperature yesterday

Maximum temperature yesterday: 64 °F (at 4:00 PM)
Minimum temperature yesterday: 43 °F (at 1:00 AM)
Average temperature yesterday: 51 °F

Past Weeks' High & Low Weather Summary

 TemperatureHumidityPressure
High82 °F (Sep 7, 3:00 PM)100% (Sep 3, 5:00 AM)30.65 "Hg (Sep 3, 5:00 AM)
Low28 °F (Sep 12, 4:00 AM)26% (Sep 7, 4:00 PM)29.63 "Hg (Sep 7, 5:00 PM)
Average50 °F70%30.12 "Hg
* Reported Sep 3 5:00 AM — Sep 18 5:00 AM, Saskatoon, Weather by CustomWeather, © 2014

Note: Actual official high and low records may vary slightly from our data, if they occured in-between our weather recording intervals... More about our weather records

Advertising

Saskatoon weather history for previous 24 hours

 ConditionsComfort  
Time TempWeatherWind HumidityBarometerVisibility
5:00 AM
Sep 18
52 °FPassing clouds.8 mph82%29.65 "Hg15 mi
4:00 AM54 °FClear.10 mph82%29.66 "Hg15 mi
3:00 AM52 °FPassing clouds.6 mph82%29.70 "Hg15 mi
2:00 AM50 °FPassing clouds.7 mph94%29.72 "Hg15 mi
1:00 AM52 °FPassing clouds.9 mph88%29.75 "Hg15 mi
12:00 AM52 °FPassing clouds.12 mph82%29.78 "Hg15 mi
11:00 PM
Sep 17
52 °FPassing clouds.14 mph82%29.81 "Hg15 mi
10:00 PM52 °FPassing clouds.15 mph82%29.84 "Hg15 mi
9:00 PM54 °FPassing clouds.13 mph82%29.86 "Hg15 mi
8:00 PM55 °FPassing clouds.13 mph77%29.88 "Hg15 mi
7:00 PM59 °FHigh level clouds.15 mph68%29.89 "Hg15 mi
6:00 PM63 °FHigh level clouds.15 mph59%29.90 "Hg15 mi
5:00 PM64 °FPartly sunny.15 mph56%29.91 "Hg15 mi
4:00 PM64 °FPartly sunny.13 mph60%29.93 "Hg15 mi
3:00 PM61 °FScattered clouds.9 mph63%29.97 "Hg15 mi
2:00 PM55 °FBroken clouds.14 mph72%29.99 "Hg15 mi
1:00 PM52 °FOvercast.14 mph82%30.02 "Hg15 mi
12:00 PM48 °FOvercast.14 mph87%30.04 "Hg15 mi
11:50 AM50 °FOvercast.14 mph82%30.04 "Hg15 mi
11:00 AM48 °FLow clouds.13 mph87%30.04 "Hg15 mi
10:00 AM46 °FLow clouds.15 mph93%30.04 "Hg10 mi
9:00 AM48 °FFog.10 mph94%30.03 "Hg4 mi
8:46 AM46 °FFog.10 mph100%30.03 "Hg3 mi
8:00 AM45 °FFog.9 mph100%30.03 "Hg2 mi
7:54 AM45 °FFog.12 mph100%30.02 "Hg2 mi
7:00 AM45 °FFog.15 mph100%30.02 "Hg5 mi
6:00 AM46 °FFog.13 mph93%30.00 "Hg5 mi
Weather by CustomWeather, © 2014

See weather overviewHow to use our weather pages